Home   Weather   Aurillac   Past weeks

Flag for France Past Weather in Aurillac, Auvergne, France — Yesterday and Last 2 Weeks

Now
32 °F

Overcast.


Feels Like: 32 °F
Forecast: 19 / 39 °F
Wind: 1 mph from Southeast

Location: Aurillac

Current Time: Jan 23, 2017 at 5:47:42 am

Latest Report: Jan 23, 2017 at 4:00 am


Visibility: 7 mi

Pressure: 30.22 "Hg (27.94 "Hg at 627m altitude)

Humidity: 85%

Dew Point: 28 °F

Location of AurillacLocation

Past Weather in Aurillac — Graph

°F

Aurillac Temperature Yesterday

Maximum temperature yesterday: 42 °F (at 12:00 pm)
Minimum temperature yesterday: 25 °F (at 8:00 am)
Average temperature yesterday: 33 °F

High & Low Weather Summary for the Past Weeks

 TemperatureHumidityPressure
High49 °F (Jan 21, 3:00 pm)100% (Jan 9, 11:00 pm)30.54 "Hg (Jan 9, 11:00 pm)
Low11 °F (Jan 18, 8:00 am)26% (Jan 17, 2:00 pm)29.83 "Hg (Jan 12, 9:00 pm)
Average31 °F79%30.24 "Hg
* Reported Jan 8 4:00 am — Jan 23 4:00 am, Aurillac, Weather by CustomWeather, © 2017

Note: Actual official high and low records may vary slightly from our data, if they occured in-between our weather recording intervals... More about our weather records

Advertising

Aurillac Weather History for the Previous 24 Hours

Scroll right to see more
 ConditionsComfort  
Time TempWeatherWind HumidityBarometerVisibility
4:00 am
Mon, Jan 23
32 °FOvercast.1 mph85%30.22 "Hg7 mi
3:00 am32 °FOvercast.2 mph84%30.23 "Hg9 mi
2:00 am33 °FOvercast.1 mph81%30.23 "Hg12 mi
1:00 am33 °FOvercast.No wind81%30.23 "Hg8 mi
12:00 am35 °FOvercast.3 mph76%30.24 "Hg12 mi
11:00 pm
Sun, Jan 22
34 °FOvercast.1 mph79%30.24 "Hg12 mi
10:00 pm36 °FOvercast.2 mph71%30.22 "Hg9 mi
9:00 pm36 °FOvercast.2 mph72%30.22 "Hg10 mi
8:00 pm37 °FOvercast.3 mph69%30.22 "Hg8 mi
7:00 pm36 °FOvercast.2 mph71%30.21 "Hg6 mi
6:00 pm37 °FOvercast.1 mph67%30.19 "Hg14 mi
5:00 pm38 °FOvercast.3 mph69%30.19 "Hg22 mi
4:00 pm40 °FOvercast.6 mph61%30.17 "Hg31 mi
3:00 pm42 °FOvercast.1 mph49%30.17 "Hg25 mi
2:00 pm41 °FOvercast.3 mph57%30.19 "Hg9 mi
1:00 pm41 °FOvercast.9 mph40%30.19 "Hg37 mi
12:00 pm42 °FOvercast.5 mph48%30.17 "Hg34 mi
11:00 am40 °FOvercast.7 mph43%30.18 "Hg34 mi
10:00 am29 °FChilly.8 mph76%30.22 "Hg9 mi
9:00 am28 °FOvercast.5 mph72%30.21 "Hg14 mi
8:00 am25 °FOvercast.3 mph79%30.21 "Hg12 mi
7:00 am25 °FChilly.2 mph78%30.20 "Hg12 mi
6:00 am27 °FChilly.2 mph73%30.19 "Hg12 mi
5:00 am29 °FOvercast.2 mph67%30.20 "Hg11 mi
Weather by CustomWeather, © 2017

See weather overviewHow to use our weather pages